LIBFLIBD

Guest
Details From LIBF - Foggia Gino Lisa
To LIBD - Bari Palese Macchie
Flight Number -
Tags decoded
Created
Modified
Stats Distance 58 nm / 107 km
Max Altitude 0 ft / 0 m
Waypoints 2
Social Downloads 23
Likes 0
Share

Download

Looking for another format? Having issues loading an existing format? Contact us
Advertisement - Login to hide

Notes

Requested: LIBF LIBD

Route

LIBF LIBD

ID Type Via Altitude (ft/m) Position (lat/lon) Dist (leg/tot) Name
O LIBF APT - 0 / 0 41.43362 / 15.53462 - / 0 nm Foggia Gino Lisa
O LIBD APT - 0 / 0 41.13787 / 16.75832 58 / 58 nm Bari Palese Macchie

Altitude Profile

Advertisement - Login to hide

LIBF

Details ICAO LIBF (FOG)
Name Foggia "Gino Lisa"
Region Italy
Timezone Europe/Rome (UTC+2.0)
Stats Elevation 265 ft / 81 m (AMSL)
Location 41.432900° 15.535000°
Runways 1
Magnetic Variation 4.011° E

METAR

LIBF 210750Z 31004KT 230V020 CAVOK 28/12 Q1020

Decode

TAF

TAF LIBF 210500Z 2106/2206 26008KT CAVOK BECMG 2110/2112 10010KT=

Decode

Departure Runways

ID Width Length Bearing (true/mag) Surface Threshold Overrun Markings Lighting
15 154 ft / 47 m 4,755 ft / 1,449 m 156.52° / 152.51° ASPHALT 0 ft / 0 m 0 ft / 0 m PREC-APP EDGE THRESHOLD CALVERT REIL-OMNI
33 154 ft / 47 m 4,755 ft / 1,449 m 336.53° / 332.52° ASPHALT 404 ft / 123 m 0 ft / 0 m PREC-APP EDGE THRESHOLD CALVERT REIL-OMNI

LIBD

Details ICAO LIBD (BRI)
Name Bari-Palese "Karol Wojtyla"
Region Italy
Timezone Europe/Rome (UTC+2.0)
Stats Elevation 173 ft / 53 m (AMSL)
Location 41.137900° 16.758300°
Runways 1
Magnetic Variation 4.191° E

METAR

LIBD 210750Z 34006KT 290V030 CAVOK 26/12 Q1019

Decode

TAF

TAF LIBD 210500Z 2106/2206 22007KT CAVOK BECMG 2110/2112 03010KT BECMG 2118/2120 22008KT

Decode

Destination Runways

ID Width Length Bearing (true/mag) Surface Threshold Overrun Markings Lighting
07 148 ft / 45 m 9,260 ft / 2,823 m 69.40° / 65.20° ASPHALT 1,240 ft / 378 m 0 ft / 0 m PREC-APP CENTERLINE EDGE THRESHOLD ALSF-II REIL-OMNI
25 148 ft / 45 m 9,260 ft / 2,823 m 249.42° / 245.23° ASPHALT 0 ft / 0 m 0 ft / 0 m PREC-APP CENTERLINE EDGE THRESHOLD SALS REIL-OMNI

Approach Navaids

Runway Type Ident Frequency Range Bearing (true/mag) Slope Elevation
07 DME BAP 111.35 MHz 18 nm / 33 km - - 183 ft / 56 m (AMSL)
07 OM OM - - 69.25° / 65.06 ° - 177 ft / 54 m (AMSL)
07 LOC-ILS BAP 111.35 MHz 18 nm / 33 km 69.39° / 65.20 ° - 175 ft / 53 m (AMSL)
07 GS BAP 111.35 MHz 10 nm / 19 km 69.39° / 65.20 ° 3.32° 175 ft / 53 m (AMSL)

Popular Alternatives